Location: Newark
(25.0000°N, 73.5000°E)
Time: 21:59:20
(UTC+00:00)

Envisat - Visible Passes

Search period start: 27 January 2021 00:00
Search period end: 06 February 2021 00:00
Orbit: 764 x 766 km, 98.1° (Epoch: 27 January)

Date Brightness Start Highest point End Pass type
(mag) Time Alt. Az. Time Alt. Az. Time Alt. Az.
27 Jan 4.7 00:07:26 10° NE 00:12:02 34° E 00:16:36 10° SSE visible
27 Jan 6.1 23:32:47 10° ENE 23:35:05 13° E 23:37:22 10° ESE visible
28 Jan 3.2 01:09:20 10° N 01:14:10 46° WNW 01:18:59 10° SSW visible
29 Jan 3.3 00:32:24 10° NNE 00:37:28 68° ESE 00:42:30 10° S visible
29 Jan 6.1 13:19:01 10° SW 13:22:12 17° W 13:25:23 10° WNW visible
29 Jan 5.2 23:56:24 10° NE 00:00:35 26° E 00:04:46 10° SSE visible
31 Jan 3.0 00:57:48 10° N 01:02:48 61° WNW 01:07:47 10° SSW visible
01 Feb 3.9 00:21:07 10° NNE 00:26:03 51° E 00:30:57 10° S visible
01 Feb 5.9 13:06:50 10° SSW 13:10:44 22° W 13:14:38 10° NW visible
01 Feb 5.6 23:45:31 10° NE 23:49:09 20° E 23:52:44 10° SE visible
03 Feb 2.9 00:46:20 10° N 00:51:25 82° WNW 00:56:29 10° SSW visible
03 Feb 6.7 13:35:01 10° WSW 13:36:16 11° W 13:37:31 10° W visible
04 Feb 4.5 00:09:55 10° NNE 00:14:37 38° E 00:19:18 10° SSE visible
04 Feb 6.0 23:34:56 10° ENE 23:37:40 15° E 23:40:24 10° SE visible
05 Feb 3.4 01:11:58 10° N 01:16:43 41° WNW 01:21:27 10° SW visible
